Weather reports worldwide

Advertisment
Frankfurt/Main, Germany (10637): temperature & dewpoint: 16.02.2019 22:00:00 - 22.02.2019 22:00:00 (CET)Frankfurt/Main, Germany (10637): temperature 5cm & temperature -5cm: 16.02.2019 22:00:00 - 22.02.2019 22:00:00 (CET)Frankfurt/Main, Germany (10637): temperature -20cm & temperature -100cm: 16.02.2019 22:00:00 - 22.02.2019 22:00:00 (CET)Frankfurt/Main, Germany (10637): wind speed & gusts: 16.02.2019 22:00:00 - 22.02.2019 22:00:00 (CET)Frankfurt/Main, Germany (10637): wind direction: 16.02.2019 22:00:00 - 22.02.2019 22:00:00 (CET)Frankfurt/Main, Germany (10637): reduced air pressure: 16.02.2019 22:00:00 - 22.02.2019 22:00:00 (CET)Frankfurt/Main, Germany (10637): visibility: 16.02.2019 22:00:00 - 22.02.2019 22:00:00 (CET)Frankfurt/Main, Germany (10637): sunshine duration: 16.02.2019 22:00:00 - 22.02.2019 22:00:00 (CET)Frankfurt/Main, Germany (10637): precipitation: 16.02.2019 22:00:00 - 22.02.2019 22:00:00 (CET)
Date & Time tt [°C] td [°C] tt 5cm [°C] tt -5cm [°C] tt -20cm [°C] tt -100cm [°C] ff [km/h] ff [kn] fx [km/h] fx [kn] dd ppp [hPa] vv [km] sd [min] rr [mm]
22.02.2019 22:00:00 7,9 4,3 6,2 5,7 6,6 5,2 16 9 11 6 NNE 1038,8 10 0 0,0
22.02.2019 21:00:00 7,0 4,2 4,4 5,9 6,8 5,2 15 8 32 17 NNE 1038,4 10 0 0,0
22.02.2019 20:00:00 8,9 4,7 6,8 6,7 7,0 5,2 13 7 11 6 NNE 1037,7 10 0 0,0
22.02.2019 19:00:00 9,2 4,9 6,8 7,3 7,1 5,2 9 5 45 24 NE 1037,4 30 0 0,0
22.02.2019 18:00:00 10,6 4,3 9,1 8,2 7,1 5,2 15 8 48 26 NNE 1037,0 10 31 0,0
22.02.2019 17:00:00 11,5 4,5 11,1 8,9 7,1 5,2 18 10 31 17 NNE 1037,0 10 2 0,0
22.02.2019 16:00:00 11,9 4,0 12,4 9,0 7,0 5,2 14 7 24 13 NE 1036,8 45 0 0,0
22.02.2019 15:00:00 11,6 4,0 11,8 8,9 6,9 5,2 18 10 40 22 NNE 1036,5 45 0 0,0
22.02.2019 14:00:00 11,5 4,7 11,8 9,0 6,7 5,2 18 10 35 19 NNE 1036,2 10 0 0,0
22.02.2019 13:00:00 12,1 4,4 12,5 9,3 6,5 5,1 13 7 26 14 NE 1035,7 50 5 0,0
22.02.2019 12:00:00 12,1 4,0 12,3 9,2 6,2 5,1 16 9 39 21 NNE 1035,3 10 14 0,0
22.02.2019 11:00:00 11,8 5,5 13,0 8,2 5,9 5,1 15 8 43 23 NNE 1035,0 10 0 0,0
22.02.2019 10:00:00 11,3 6,7 11,7 7,4 5,8 5,1 14 8 21 11 NNE 1034,6 25 0 0,0
22.02.2019 09:00:00 10,4 7,2 10,1 6,6 5,7 5,1 8 4 21 11 NNW 1033,7 10 0 0,0
22.02.2019 08:00:00 9,9 6,9 9,0 6,4 5,7 5,1 6 3 12 6 N 1033,2 18 0 0,0
22.02.2019 07:00:00 10,0 6,8 9,0 6,3 5,6 5,1 4 2 19 10 - 1032,5 10 0 0,0
22.02.2019 06:00:00 9,9 7,2 9,0 6,2 5,6 5,1 9 5 22 12 W 1031,8 10 0 0,0
22.02.2019 05:00:00 10,1 7,1 8,8 6,1 5,6 5,1 13 7 21 11 NNW 1031,8 10 0 0,0
22.02.2019 04:00:00 9,3 6,4 8,6 6,0 5,6 5,1 11 6 21 11 WNW 1031,3 10 0 0,0
22.02.2019 03:00:00 9,9 6,5 7,9 5,9 5,6 5,0 5 3 15 8 W 1031,0 10 0 0,0
22.02.2019 02:00:00 9,7 6,3 7,8 5,6 5,6 5,0 8 4 15 8 W 1030,7 15 0 0,0
22.02.2019 01:00:00 8,8 5,5 5,0 6,0 5,7 5,0 7 4 21 11 W 1030,6 17 0 0,0
22.02.2019 00:00:00 10,4 6,0 8,5 6,2 5,7 5,0 8 4 13 7 W 1030,5 10 0 0,0
21.02.2019 23:00:00 8,9 6,3 7,3 6,2 5,7 5,0 5 3 11 6 S 1030,1 10 0 0,0
21.02.2019 22:00:00 8,8 6,3 7,2 6,3 5,8 5,0 5 3 13 7 SSW 1029,7 10 0 0,0
21.02.2019 21:00:00 9,0 6,7 6,9 6,5 5,8 5,0 5 3 20 11 SW 1029,2 10 0 0,0
21.02.2019 20:00:00 9,2 6,7 7,5 6,7 5,8 5,0 4 2 23 13 - 1029,0 10 0 0,0
21.02.2019 19:00:00 9,7 6,9 8,0 7,2 5,8 5,0 9 5 25 13 S 1028,8 10 0 0,1
21.02.2019 18:00:00 11,0 5,7 9,4 7,7 5,7 5,0 8 4 21 11 SSW 1028,3 10 0 0,0
21.02.2019 17:00:00 11,4 5,6 10,6 8,5 5,5 5,0 11 6 18 10 SW 1028,0 18 23 0,0
21.02.2019 16:00:00 11,9 5,2 12,3 8,8 5,1 5,0 13 7 40 22 SSW 1027,8 10 57 0,0
21.02.2019 15:00:00 10,3 4,8 10,7 8,3 4,7 5,0 11 6 24 13 SSW 1028,3 10 25 0,0
21.02.2019 14:00:00 10,3 4,7 13,4 7,5 4,3 5,0 11 6 29 15 S 1028,3 10 37 0,0
21.02.2019 13:00:00 8,2 3,9 9,6 6,4 3,9 5,0 5 3 16 9 S 1029,1 10 0 0,0
21.02.2019 12:00:00 7,1 3,4 8,5 5,4 3,6 5,0 6 4 16 9 SSW 1029,3 16 3 0,0
21.02.2019 11:00:00 5,7 3,1 6,0 4,3 3,4 5,0 9 5 19 10 SSW 1029,4 10 0 0,0
21.02.2019 10:00:00 4,7 2,9 4,9 3,1 3,2 5,0 8 4 21 11 SW 1029,1 10 0 0,0
21.02.2019 09:00:00 2,9 2,1 3,3 1,7 3,3 5,0 7 4 14 7 SW 1028,8 13 1 0,0
21.02.2019 08:00:00 0,5 -0,2 -0,5 1,6 3,4 5,0 5 3 14 8 SSW 1028,4 10 0 0,0
21.02.2019 07:00:00 0,0 -0,5 -1,1 1,6 3,5 5,0 8 4 25 14 SW 1028,3 10 0 0,0
21.02.2019 06:00:00 0,4 -0,2 -1,7 1,7 3,6 5,0 2 1 11 6 - 1028,0 10 0 0,0
21.02.2019 05:00:00 0,2 -0,3 -0,1 1,8 3,7 5,0 8 4 9 5 S 1028,2 15 0 0,0
21.02.2019 04:00:00 -0,5 -1,3 -0,7 1,9 3,9 5,0 5 3 5 3 SSW 1028,1 10 0 0,0
21.02.2019 03:00:00 -0,1 -0,8 -2,5 2,0 4,1 5,0 5 3 5 3 SW 1027,9 10 0 0,0
21.02.2019 02:00:00 0,4 -0,4 -2,1 2,2 4,3 5,0 5 3 11 6 SSW 1027,6 10 0 0,0
21.02.2019 01:00:00 1,0 0,0 -1,9 2,7 4,5 5,0 4 2 5 3 SSW 1027,5 25 0 0,0
21.02.2019 00:00:00 1,9 0,8 -0,7 3,0 4,8 5,0 2 1 5 3 SSW 1027,0 35 0 0,0
20.02.2019 23:00:00 2,5 1,1 -0,2 3,4 5,0 5,0 4 2 11 6 - 1026,6 10 0 0,0
20.02.2019 22:00:00 3,8 1,7 -0,2 4,1 5,2 5,0 6 4 11 6 S 1026,4 35 0 0,0
20.02.2019 21:00:00 5,3 2,4 1,9 5,0 5,4 5,0 4 2 18 10 SSE 1026,2 35 0 0,0
20.02.2019 20:00:00 7,0 3,1 4,3 5,8 5,5 5,0 4 2 9 5 SE 1025,7 35 0 0,0
20.02.2019 19:00:00 8,2 3,2 4,5 6,4 5,6 5,0 5 3 19 10 S 1025,4 35 0 0,0
20.02.2019 18:00:00 10,1 3,3 7,1 7,4 5,5 5,0 5 3 27 14 SSE 1024,8 10 0 0,0
20.02.2019 17:00:00 10,8 2,9 10,2 8,1 5,3 5,0 9 5 18 10 SSW 1024,7 35 1 0,0
20.02.2019 16:00:00 11,0 2,2 11,2 8,6 5,0 5,0 15 8 25 13 WSW 1024,9 35 9 0,0
20.02.2019 15:00:00 10,6 2,5 11,7 9,0 4,5 5,0 11 6 21 11 WSW 1025,0 30 53 0,0
20.02.2019 14:00:00 10,0 3,3 11,2 8,3 3,9 5,0 11 6 24 13 SW 1025,2 25 46 0,0
20.02.2019 13:00:00 9,1 2,6 10,7 7,1 3,3 5,0 11 6 18 10 SW 1025,6 10 58 0,0
20.02.2019 12:00:00 7,2 2,7 8,9 4,8 2,8 5,0 9 5 16 9 SSW 1026,0 10 45 0,0
20.02.2019 11:00:00 4,2 1,5 5,6 2,2 2,7 5,0 5 3 17 9 S 1025,9 10 59 0,0
20.02.2019 10:00:00 1,8 0,6 2,0 0,9 2,7 5,0 4 2 17 9 - 1025,8 3,5 12 0,0
20.02.2019 09:00:00 0,4 0,1 -0,2 1,0 2,8 5,0 8 4 21 11 SW 1025,5 0,8 0 0,0
20.02.2019 08:00:00 -1,6 -2,1 -2,6 1,0 2,9 5,0 4 2 25 14 - 1024,9 1,2 0 0,0
20.02.2019 07:00:00 -1,4 -2,1 -3,5 1,0 3,0 5,0 7 4 23 13 S 1024,3 12 0 0,0
20.02.2019 06:00:00 -2,1 -2,7 -4,3 1,1 3,1 5,0 2 1 4 2 - 1024,2 10 0 0,0
20.02.2019 05:00:00 -1,9 -2,5 -4,4 1,2 3,2 5,0 2 1 4 2 S 1024,0 16 0 0,0
20.02.2019 04:00:00 -1,8 -2,5 -4,2 1,3 3,4 5,0 4 2 4 2 WSW 1023,8 10 0 0,0
20.02.2019 03:00:00 -1,7 -2,2 -4,4 1,4 3,5 5,0 4 2 4 2 W 1024,0 10 0 0,0
20.02.2019 02:00:00 -1,0 -1,5 -3,6 1,6 3,7 5,0 0 0 5 3 N 1023,9 25 0 0,0
20.02.2019 01:00:00 -0,1 -0,8 -3,1 1,8 3,9 5,0 2 1 8 4 N 1023,7 10 0 0,0
20.02.2019 00:00:00 0,3 -0,5 -2,8 2,0 4,1 5,0 4 2 5 3 SSE 1023,4 35 0 0,0
19.02.2019 23:00:00 1,0 0,0 -2,7 2,2 4,4 5,0 8 4 16 8 SSW 1023,2 40 0 0,0
19.02.2019 22:00:00 2,7 1,0 -1,4 2,7 4,6 5,0 7 4 21 11 S 1023,0 40 0 0,0
19.02.2019 21:00:00 2,8 0,9 -1,3 3,3 4,9 5,0 8 4 27 14 S 1022,6 10 0 0,0
19.02.2019 20:00:00 5,6 1,7 1,4 4,1 5,1 5,0 9 5 24 13 SSW 1021,9 10 0 0,0
19.02.2019 19:00:00 6,5 2,1 0,7 5,1 5,3 5,0 11 6 29 16 SSW 1021,6 10 0 0,0
19.02.2019 18:00:00 9,2 2,1 4,9 6,4 5,3 5,0 14 8 25 14 SW 1020,8 55 31 0,0
19.02.2019 17:00:00 10,7 2,3 9,3 7,5 5,2 5,0 15 8 31 17 SW 1020,7 10 49 0,0
19.02.2019 16:00:00 10,2 2,6 9,1 7,9 4,8 5,0 16 9 34 18 SW 1020,8 10 37 0,0
19.02.2019 15:00:00 9,7 3,1 8,6 7,9 4,4 5,0 21 11 33 18 WSW 1020,6 10 18 0,0
19.02.2019 14:00:00 10,0 4,9 11,5 7,7 3,9 5,0 16 9 25 14 SW 1020,9 10 58 0,0
19.02.2019 13:00:00 7,6 4,7 8,2 5,8 3,5 5,0 14 7 23 12 SW 1021,5 25 11 0,0
19.02.2019 12:00:00 5,8 4,3 6,4 4,0 3,2 5,0 9 5 23 12 SW 1021,9 10 0 0,1
19.02.2019 11:00:00 4,5 2,8 4,6 2,9 3,1 5,0 7 4 16 9 S 1021,3 13 0 0,6
19.02.2019 10:00:00 3,9 2,0 3,3 2,3 3,1 5,0 5 3 29 16 WSW 1021,3 10 0 0,2
19.02.2019 09:00:00 4,5 0,9 3,4 1,6 3,1 5,0 11 6 27 15 SSW 1020,3 10 0 0,0
19.02.2019 08:00:00 1,8 -0,3 0,3 1,4 3,2 5,0 5 3 27 15 SSW 1019,8 10 0 0,0
19.02.2019 07:00:00 1,2 -0,8 0,2 1,4 3,3 5,0 9 5 29 16 SW 1019,3 40 0 0,0
19.02.2019 06:00:00 0,1 -1,2 -1,2 1,5 3,4 5,0 7 4 9 5 SW 1019,2 40 0 0,0
19.02.2019 05:00:00 -0,1 -1,4 -2,7 1,5 3,5 5,0 4 2 11 6 SW 1018,9 10 0 0,0
19.02.2019 04:00:00 0,3 -1,6 -2,8 1,7 3,7 5,0 4 2 11 6 WSW 1018,9 10 0 0,0
19.02.2019 03:00:00 1,2 -1,3 -1,6 1,8 3,8 5,0 6 3 16 9 SW 1019,0 40 0 0,0
19.02.2019 02:00:00 2,8 -0,7 -1,3 1,9 4,0 4,9 8 4 13 7 SSW 1018,9 40 0 0,0
19.02.2019 01:00:00 0,8 -1,1 -2,3 2,1 4,2 4,9 8 4 11 6 SSW 1018,9 10 0 0,0
19.02.2019 00:00:00 1,3 -0,9 -2,1 2,3 4,5 4,9 4 2 8 4 - 1018,9 10 0 0,0
18.02.2019 23:00:00 2,3 -0,3 -1,2 2,6 4,7 4,9 8 4 20 11 S 1018,6 10 0 0,0
18.02.2019 22:00:00 4,5 0,8 -0,9 3,2 5,0 4,9 9 5 24 13 S 1018,4 10 0 0,0
18.02.2019 21:00:00 3,4 0,0 -0,9 3,9 5,3 4,9 11 6 25 14 S 1018,3 10 0 0,0
18.02.2019 20:00:00 4,8 1,3 0,3 4,7 5,6 4,9 5 3 16 9 WSW 1018,2 10 0 0,0
18.02.2019 19:00:00 6,2 1,1 1,9 5,8 5,8 4,9 4 2 22 12 - 1018,1 10 0 0,0
18.02.2019 18:00:00 9,2 1,4 4,4 7,2 5,8 5,0 4 2 13 7 SE 1018,0 50 6 0,0
18.02.2019 17:00:00 12,6 1,9 9,1 8,8 5,6 5,0 7 4 23 12 SSW 1018,3 50 48 0,0
18.02.2019 16:00:00 13,9 1,1 13,7 9,7 5,2 5,0 9 5 21 11 SSW 1018,8 10 60 0,0
18.02.2019 15:00:00 13,5 0,3 14,8 9,7 4,6 5,0 8 4 18 10 SW 1019,2 10 60 0,0
18.02.2019 14:00:00 12,4 0,7 14,0 8,8 4,0 5,0 8 4 16 9 SW 1020,1 10 60 0,0
18.02.2019 13:00:00 10,4 0,1 12,6 7,4 3,4 5,0 11 6 18 10 S 1021,0 10 60 0,0
18.02.2019 12:00:00 8,4 0,1 10,2 5,3 2,9 5,0 9 5 21 11 SSW 1022,0 10 60 0,0
18.02.2019 11:00:00 6,0 -0,4 6,5 1,9 2,7 5,0 8 4 13 7 SSW 1022,5 10 60 0,0
18.02.2019 10:00:00 3,6 -0,6 3,4 0,8 2,8 4,9 2 1 15 8 - 1022,8 10 60 0,0
18.02.2019 09:00:00 -0,9 -3,5 -0,7 0,8 2,9 4,9 2 1 5 3 - 1023,2 10 60 0,0
18.02.2019 08:00:00 -3,4 -4,6 -5,2 0,9 3,0 4,9 4 2 5 3 - 1023,3 10 2 0,0
18.02.2019 07:00:00 -3,2 -4,0 -5,4 1,0 3,1 4,9 3 2 6 3 E 1022,9 15 0 0,0
18.02.2019 06:00:00 -2,9 -3,6 -5,2 1,1 3,3 4,9 3 1 5 3 ENE 1023,1 14 0 0,0
18.02.2019 05:00:00 -2,8 -3,6 -5,5 1,2 3,4 4,9 2 1 5 3 - 1023,2 10 0 0,0
18.02.2019 04:00:00 -2,5 -3,3 -5,0 1,4 3,6 4,9 0 0 4 2 N 1023,1 16 0 0,0
18.02.2019 03:00:00 -2,2 -2,8 -4,8 1,6 3,8 4,9 2 1 4 2 - 1023,3 10 0 0,0
18.02.2019 02:00:00 -1,8 -2,5 -3,8 1,8 4,0 4,9 4 2 4 2 WSW 1023,4 10 0 0,0
18.02.2019 01:00:00 -1,1 -2,0 -4,0 2,0 4,2 4,9 4 2 4 2 SW 1023,3 10 0 0,0
18.02.2019 00:00:00 0,6 -0,3 -3,0 2,3 4,4 4,9 4 2 5 3 - 1023,1 10 0 0,0
17.02.2019 23:00:00 1,0 -0,4 -2,3 2,5 4,7 4,9 2 1 8 4 - 1023,2 10 0 0,0
17.02.2019 22:00:00 2,1 0,1 -1,7 3,1 5,0 4,9 5 3 9 5 - 1023,3 10 0 0,0
17.02.2019 21:00:00 3,0 0,4 -1,3 3,8 5,3 4,9 2 1 5 3 - 1023,1 10 0 0,0
17.02.2019 20:00:00 4,4 1,0 0,1 4,7 5,6 4,9 2 1 8 4 - 1023,0 10 0 0,0
17.02.2019 19:00:00 6,0 1,4 1,2 5,9 5,8 4,9 2 1 8 4 - 1022,7 10 0 0,0
17.02.2019 18:00:00 9,1 1,9 3,4 7,6 5,8 4,9 5 3 8 4 WNW 1022,4 10 36 0,0
17.02.2019 17:00:00 12,7 1,6 11,7 9,1 5,6 4,9 5 3 14 8 WNW 1022,4 10 60 0,0
17.02.2019 16:00:00 14,4 0,7 14,1 9,7 5,1 4,9 8 4 11 6 WNW 1022,9 10 60 0,0
17.02.2019 15:00:00 13,2 0,6 14,2 9,5 4,5 4,9 9 5 18 10 SW 1023,5 10 60 0,0
17.02.2019 14:00:00 11,4 1,2 13,4 8,6 3,9 4,9 8 4 20 11 SSW 1024,3 10 60 0,0
17.02.2019 13:00:00 10,4 0,5 12,6 7,3 3,3 4,9 8 4 16 8 SW 1025,1 10 60 0,0
17.02.2019 12:00:00 7,3 0,6 8,5 4,9 2,8 4,9 6 4 11 6 SW 1026,1 20 60 0,0
17.02.2019 11:00:00 4,6 0,3 5,1 1,8 2,7 4,9 4 2 5 3 - 1026,4 10 60 0,0
17.02.2019 10:00:00 2,4 -0,9 2,5 0,9 2,8 4,9 4 2 11 6 - 1026,8 10 60 0,0
17.02.2019 09:00:00 -0,6 -2,4 -0,7 0,9 2,9 4,9 3 2 8 4 ESE 1026,9 15 54 0,0
17.02.2019 08:00:00 -2,9 -3,7 -4,4 1,0 3,0 4,9 2 1 5 3 - 1027,0 10 0 0,0
17.02.2019 07:00:00 -3,0 -3,8 -5,3 1,0 3,1 4,9 2 1 5 3 WSW 1026,8 10 0 0,0
17.02.2019 06:00:00 -2,5 -3,2 -4,9 1,2 3,2 4,9 2 1 7 4 E 1026,9 15 0 0,0
17.02.2019 05:00:00 -2,1 -3,0 -4,7 1,3 3,4 4,9 4 2 8 4 ESE 1026,9 10 0 0,0
17.02.2019 04:00:00 -0,6 -1,2 -2,5 1,4 3,5 4,9 5 3 9 5 NE 1026,8 15 0 0,0
17.02.2019 03:00:00 -1,6 -2,2 -3,9 1,6 3,7 4,8 6 3 8 4 NE 1027,2 15 0 0,0
17.02.2019 02:00:00 -1,2 -1,8 -3,7 1,8 3,9 4,8 5 3 9 5 NE 1027,2 15 0 0,0
17.02.2019 01:00:00 -0,8 -1,3 -3,0 2,0 4,1 4,8 0 0 8 4 N 1027,2 10 0 0,0
17.02.2019 00:00:00 -0,2 -1,0 -2,4 2,1 4,4 4,8 6 4 8 4 N 1027,5 20 0 0,0
16.02.2019 23:00:00 0,4 -0,4 -2,6 2,5 4,6 4,8 4 2 8 4 E 1027,5 10 0 0,0
16.02.2019 22:00:00 1,5 0,1 -1,7 3,0 4,9 4,8 2 1 4 2 SSE 1027,5 10 0 0,0

tt = temperature
td = dewpoint
tt 5cm = temperature 5cm
tt -5cm = temperature -5cm
tt -20cm = temperature -20cm
tt -100cm = temperature -100cm
ff = wind speed
fx = gusts
dd = wind direction
ppp = reduced air pressure
vv = visibility
sd = sunshine duration
rr = precipitation

Next stations